Other Public Products
Issued by NWS Charleston, SC

Current Version | Previous Version | Graphics & Text | Print | Product List | Glossary On
Versions: 1 2 3 4 5 6 7 8 9 10 11 12 13 14 15 16 17 18 19 20 21 22 23 24 25 26 27 28 29 30 31 32 33 34 35 36 37 38 39 40 41 42 43 44 45 46 47 48 49 50
554
FPUS82 KCHS 041927
OPUCHS

TEST...KCHS/KSAV Gateway Observations...TEST
National Weather Service Charleston SC
200 PM EST SUN DEC 04 2016

NOTE: "fair" indicates few or no clouds below 12,000 feet with no
significant weather and/or obstructions to visibility.

SCZ050-WAZ558-NCZ071-TXZ119-213-PAZ071-DCZ001-FLZ074-172-MI076-
NYZ176-178-MAZ016-IL014-TNZ027-NJZ106-GAZ044-MD014-042000-
...Gateway Observations for Charleston International...

CITY           SKY/WX    TMP DP  RH WIND       PRES   REMARKS
Chas Airport   CLOUDY    60  48  64 E14       30.13F
Seattle        PTSUNNY   38  35  89 S7        30.06R WCI  33
Charlotte      LGT RAIN  42  39  89 CALM      30.22F FOG
Dallas DFW     CLOUDY    52  44  74 N12       30.05F
Dallas Love    CLOUDY    52  45  77 N8        30.06F
Philladelphia  PTSUNNY   48  25  40 N10       30.21F
Wash National  CLOUDY    47  30  51 CALM      30.23F
Baltimore      CLOUDY    45  29  53 NW3       30.22F
Miami          PTSUNNY   80  67  64 E15       30.02F
Detroit        CLOUDY    38  28  67 SE7       30.08F WCI  33
Newark         PTSUNNY   47  21  35 VRB3      30.18F
Laguardia      PTSUNNY   47  21  35 NW6       30.18F
J F K          PTSUNNY   47  20  34 N13       30.20S
Boston Logan   SUNNY     41  20  43 NW14      30.16S
Ft. Lauderdale CLOUDY    80  69  69 SE18      30.01F
Chicago O`Hare SNOW      31  30  96 SE5       29.98F VSB 1/4 WCI  26
Chicago Midway LGT SNOW  33  30  88 E8        29.96F VSB 3/4 WCI  26
Houston Bush   LGT RAIN  53  50  89 N14       29.96F
Houston Hobby  LGT RAIN  53  51  93 N14       29.94F
Nashville      CLOUDY    48  44  86 S9        29.93F
Atlanta        LGT RAIN  45  45 100 E14G22    30.07F FOG

$$

GAZ044-118-TXZ119-213-NCZ071-DCZ001-MDZ014-506-PAZ021-071-NJZ106-
NYZ176-178-MAZ106-OHZ011-021-055-MIZ076-KYZ091-ILZ014-INZ047-
MNZ060-042000-
...Gateway Observations for Savannah International...

CITY           SKY/WX    TMP DP  RH WIND       PRES   REMARKS
Savannah Arpt  CLOUDY    63  51  65 E13       30.09F
Atlanta        LGT RAIN  45  45 100 E14G22    30.07F FOG
Charlotte      LGT RAIN  42  39  89 CALM      30.22F FOG
Dallas DFW     CLOUDY    52  44  74 N12       30.05F
Houston Bush   LGT RAIN  53  50  89 N14       29.96F
Wash National  CLOUDY    47  30  51 CALM      30.23F
Wash Dulles    CLOUDY    45  28  51 CALM      30.21F
Baltimore      CLOUDY    45  29  53 NW3       30.22F
Philadelphia   PTSUNNY   48  25  40 N10       30.21F
Newark         PTSUNNY   47  21  35 VRB3      30.18F
Laguardia      PTSUNNY   47  21  35 NW6       30.18F
J F K          PTSUNNY   47  20  34 N13       30.20S
Boston         SUNNY     41  20  43 NW14      30.16S
Pittsburg      CLOUDY    41  28  60 E10       30.11F
Akron          CLOUDY    38  26  62 SE12      30.09F WCI  30
Cleveland      CLOUDY    41  25  53 SE12      30.11F
Cincinnati     CLOUDY    44  32  62 E9        29.95F
Columbus       CLOUDY    41  29  63 E13       30.02F
Detroit        CLOUDY    38  28  67 SE7       30.08F WCI  33
Chicago O`Hare SNOW      31  30  96 SE5       29.98F VSB 1/4 WCI  26
Minneapolis    CLOUDY    35  31  85 SW10      29.81F WCI  27
Indianapolis   LGT RAIN  40  35  83 SE10      29.91F WCI  33

$$




USA.gov is the U.S. government's official web portal to all federal, state and local government web resources and services.